Ukiah, CA

9:27 AM PST on February 25, 2017 (GMT -0800)
Ukiah Municipal

Weather History for KUKI - December, 2013

Change the Weather History Date:

Friday, December 6, 2013

  Actual Average Record
Temperature  
Mean Temperature 30 °F 46 °F  
Max Temperature 39 °F 56 °F 78 °F (1925)
Min Temperature 20 °F 36 °F 20 °F (2013)
Degree Days  
Heating Degree Days 35 19  
Month to date heating degree days 140 112  
Since 1 July heating degree days 665 735  
Cooling Degree Days 0 0  
Month to date cooling degree days 0 0  
Year to date cooling degree days 974 835  
Moisture  
Dew Point 27 °F    
Average Humidity 75    
Maximum Humidity 96    
Minimum Humidity 54    
Precipitation  
Precipitation 0.49 in 0.19 in 2.19 in (1987)
Month to date precipitation 0.49 0.97  
Year to date precipitation 7.50 31.37  
Since 1 July precipitation 1.92  
Snow  
Snow 0.00 in - - ()
Month to date snowfall 0.0  
Since 1 July snowfall 0.0  
Snow Depth 0.00 in    
Sea Level Pressure  
Sea Level Pressure 30.05 in    
Wind  
Wind Speed 1 mph (West)    
Max Wind Speed 13 mph    
Max Gust Speed 18 mph    
Visibility 5 miles    
Events Fog , Rain , Snow    
T = Trace of Precipitation, MM = Missing Value Source: NWS Daily Summary

Daily Weather History Graph

Daily Weather History Graph

Search for Another Location

Airport or City:

Trip Planner

Search our weather history database for the weather conditions in past years. The results will help you decide how hot, cold, wet, or windy it might be!

Date:

Astronomy

Dec. 06, 2013 Rise Set
Actual Time 7:18 AM PST 4:49 PM PST
Civil Twilight 6:48 AM PST 5:19 PM PST
Nautical Twilight 6:14 AM PST 5:53 PM PST
Astronomical Twilight 5:42 AM PST 6:25 PM PST
Moon 10:28 AM PST (12/6) 9:27 PM PST (12/6)
Length of Visible Light 10h 31m
Length of Day
9h 31m
Waxing Crescent, 20% of the Moon is Illuminated
Dec 6
Waxing Crescent
Dec 9
First Quarter
Dec 17
Full
Dec 25
Last Quarter
Jan 1
New

Hourly Weather History & Observations

Time (PST) Temp. Windchill Dew Point Humidity Pressure Visibility Wind Dir Wind Speed Gust Speed Precip Events Conditions
12:56 AM 24.1 °F - 19.0 °F 81% 30.15 in 9.0 mi Calm Calm - N/A   Clear
1:56 AM 24.1 °F - 19.0 °F 81% 30.16 in 10.0 mi Calm Calm - N/A   Clear
2:56 AM 24.1 °F - 19.0 °F 81% 30.17 in 10.0 mi Calm Calm - N/A   Clear
3:56 AM 21.9 °F - 18.0 °F 85% 30.17 in 10.0 mi Calm Calm - N/A   Clear
4:56 AM 21.9 °F - 18.0 °F 85% 30.16 in 8.0 mi Calm Calm - N/A   Clear
5:56 AM 19.9 °F - 17.1 °F 89% 30.17 in 10.0 mi Calm Calm - N/A   Clear
6:56 AM 21.0 °F - 17.1 °F 85% 30.18 in 9.0 mi Calm Calm - N/A   Clear
7:56 AM 19.9 °F - 17.1 °F 89% 30.19 in 8.0 mi Calm Calm - N/A   Clear
8:56 AM 24.1 °F - 19.9 °F 84% 30.19 in 8.0 mi Calm Calm - N/A   Clear
9:56 AM 28.9 °F - 23.0 °F 78% 30.19 in 10.0 mi Calm Calm - N/A   Mostly Cloudy
10:56 AM 32.0 °F 27.5 °F 24.1 °F 73% 30.18 in 10.0 mi WNW 4.6 mph - N/A   Overcast
11:56 AM 36.0 °F - 21.9 °F 57% 30.14 in 10.0 mi Calm Calm - N/A   Overcast
12:56 PM 37.9 °F - 23.0 °F 55% 30.12 in 10.0 mi Calm Calm - N/A   Overcast
1:42 PM 37.9 °F - 24.1 °F 57% 30.09 in 3.0 mi Calm Calm - 0.00 in Snow Light Snow
1:46 PM 37.0 °F - 26.1 °F 65% 30.09 in 2.5 mi Calm Calm - 0.00 in Snow Light Snow
1:56 PM 36.0 °F - 28.0 °F 73% 30.09 in 1.2 mi Calm Calm - 0.01 in Snow Light Snow
2:16 PM 35.1 °F - 30.0 °F 82% 30.07 in 2.0 mi Calm Calm - 0.00 in Snow Light Snow
2:34 PM 34.0 °F 28.8 °F 30.0 °F 85% 30.07 in 1.2 mi North 5.8 mph - 0.01 in Snow Light Snow
2:56 PM 33.1 °F - 30.9 °F 92% 30.08 in 1.0 mi Calm Calm - 0.01 in Snow Light Snow
3:56 PM 33.1 °F - 30.9 °F 92% 30.06 in 0.8 mi Calm Calm - 0.01 in Snow Light Snow
4:19 PM 33.1 °F - 30.9 °F 92% 30.03 in 0.5 mi Calm Calm - 0.00 in Fog , Snow Snow
4:42 PM 32.0 °F - 30.9 °F 96% 30.02 in 1.0 mi Calm Calm - 0.00 in Snow Light Snow
4:56 PM 32.0 °F 27.5 °F 30.9 °F 96% 30.02 in 1.8 mi South 4.6 mph - 0.00 in Snow Light Snow
5:05 PM 32.0 °F 28.7 °F 30.9 °F 96% 30.00 in 2.5 mi SSE 3.5 mph - 0.00 in   Overcast
5:25 PM 33.1 °F - 30.9 °F 92% 30.00 in 2.5 mi Calm Calm - 0.00 in Rain Light Rain
5:33 PM 33.1 °F - 30.9 °F 92% 29.99 in 3.0 mi Calm Calm - 0.00 in Rain Light Rain
5:40 PM 33.1 °F - 30.9 °F 92% 29.99 in 3.0 mi Calm Calm - 0.00 in Rain Light Rain
5:44 PM 33.1 °F 30.0 °F 30.9 °F 92% 29.98 in 2.5 mi East 3.5 mph - 0.01 in Rain Light Rain
5:56 PM 32.0 °F - 30.9 °F 96% 29.99 in 1.8 mi Calm Calm - 0.03 in Rain Light Rain
6:09 PM 32.0 °F 28.7 °F 30.9 °F 96% 29.96 in 2.0 mi South 3.5 mph - 0.01 in   Overcast
6:13 PM 32.0 °F 27.5 °F 30.9 °F 96% 29.96 in 2.0 mi South 4.6 mph - 0.01 in   Overcast
6:28 PM 35.1 °F 30.1 °F 33.1 °F 92% 29.95 in 4.0 mi SSW 5.8 mph - 0.03 in Rain Light Rain
6:56 PM 34.0 °F 28.0 °F 32.0 °F 92% 29.96 in 3.0 mi NW 6.9 mph - 0.09 in Rain Light Rain
7:04 PM 34.0 °F 29.8 °F 32.0 °F 92% 29.94 in 3.0 mi NW 4.6 mph - 0.02 in Rain Rain
7:56 PM 34.0 °F - 32.0 °F 92% 29.94 in 3.0 mi Calm Calm - 0.18 in Rain Rain
8:56 PM 35.1 °F - 34.0 °F 96% 29.94 in 6.0 mi Calm Calm - 0.08 in   Overcast
9:15 PM 35.1 °F - 33.1 °F 92% 29.93 in 2.5 mi Calm Calm - 0.03 in Rain Rain
9:27 PM 35.1 °F - 33.1 °F 92% 29.94 in 5.0 mi Calm Calm - 0.05 in Rain Light Rain
9:56 PM 35.1 °F 31.0 °F 33.1 °F 92% 29.94 in 5.0 mi NW 4.6 mph - 0.06 in Rain Light Rain
10:56 PM 34.0 °F 29.8 °F 32.0 °F 92% 29.95 in 6.0 mi NE 4.6 mph - 0.02 in   Overcast
11:56 PM 34.0 °F 31.0 °F 32.0 °F 92% 29.95 in 4.0 mi WNW 3.5 mph - N/A   Mostly Cloudy